Location: Nakusp
(50.2330°N, 117.8000°W)
Time: 02:44:12
(UTC-07:00)

Daily predictions for brighter satellites

Satellite Brightness Start Highest point End
(mag) Time Altitude Azimuth Time Altitude Azimuth Time Altitude Azimuth
Cosmos 1354 Rocket 4.2 00:02:15 10° NNW 00:07:27 62° WSW 00:09:18 38° S
Meteor 1-5 Rocket 4.3 00:05:46 37° SSE 00:07:32 54° E 00:12:43 10° NNE
H-2A R/B 4.2 00:05:40 10° SW 00:09:10 17° W 00:12:40 10° NW
Cosmos 1602 4.4 00:10:46 35° SW 00:11:59 48° WNW 00:15:49 10° N
Okean 2 3.4 00:08:08 10° NNW 00:12:19 80° W 00:13:13 54° S
Cosmos 375 4.4 00:12:43 10° NW 00:17:03 74° NE 00:18:06 46° ESE
Cosmos 1315 Rocket 2.6 00:18:32 61° SSW 00:19:11 88° W 00:23:09 10° NNE
Cosmos 1943 Rocket 3.2 00:19:04 27° ESE 00:20:06 28° ESE 00:24:49 10° NE
Cosmos 1544 Rocket 3.4 00:20:39 52° SSW 00:21:42 88° WNW 00:26:04 10° N
Lacrosse 5 rocket 1.3 00:24:26 52° ESE 00:24:26 52° ESE 00:27:32 10° ENE
ATLAS 2AS CENTAUR R/B 3.1 00:16:13 10° NW 00:24:27 79° NE 00:30:12 21° SE
Cosmos 1689 Rocket 2.2 00:27:11 81° NW 00:27:11 81° NW 00:30:16 10° NNW
GP-B 3.6 00:27:39 10° NNE 00:31:58 48° E 00:32:58 40° SE
Meteor 2-4 Rocket 4.3 00:26:51 10° NNW 00:31:59 44° W 00:34:05 31° SW
Helios 1A Rocket 3.5 00:30:07 10° NNE 00:34:04 41° E 00:34:31 39° ESE
Genesis I 3.2 00:33:41 55° SW 00:34:32 87° NW 00:38:35 10° NE
USA 234 3.3 00:31:17 10° ENE 00:37:51 81° NNW 00:44:24 10° WSW
CZ-4C R/B 3.9 00:37:47 40° WSW 00:38:06 41° W 00:41:40 10° NNW
Cosmos 1992 Rocket 4.1 00:36:50 44° SSE 00:38:15 61° ESE 00:43:25 10° NNE
Cosmos 1346 Rocket 2.6 00:37:06 10° NNW 00:41:02 80° W 00:41:27 68° SSW
Landsat 5 3.6 00:40:31 53° SSW 00:41:21 68° WSW 00:45:35 10° NNW
Cosmos 1447 Rocket 4.5 00:35:28 10° NNW 00:41:37 74° W 00:44:11 37° S
Cosmos 44 4.5 00:39:22 10° NNW 00:44:28 43° NE 00:48:51 12° ESE
Cosmos 2263 4.2 00:43:25 41° S 00:45:20 69° ESE 00:50:59 10° NNE
BREEZE-M DEB (TANK) 3.5 00:34:12 10° W 00:48:38 84° S 00:52:32 10° E
H-2A R/B 2.7 00:45:59 10° NNE 00:50:33 76° WNW 00:51:49 47° SSW
Cosmos 1536 4.4 00:51:33 22° WSW 00:53:00 27° WNW 00:56:27 10° N
ISS -3.0 00:49:58 10° W 00:53:14 66° N 00:56:29 10° E
BREEZE-M DEB (TANK) 3.2 00:54:26 10° W 00:57:43 56° SSW 01:08:24 10° ESE
Cosmos 2100 Rocket 4.1 00:55:57 37° S 00:58:38 75° E 01:05:01 10° NNE
Cosmos 1825 Rocket 4.0 00:57:24 10° N 01:01:48 54° ENE 01:03:06 39° SE
Cosmos 1833 4.2 00:57:05 10° NW 01:02:40 66° WSW 01:04:29 42° S
Cosmos 1975 2.7 01:08:41 62° SSW 01:09:18 80° W 01:13:24 10° N
Cosmos 2061 Rocket 4.0 01:08:42 37° S 01:11:30 84° E 01:17:57 10° N
CZ-4B R/B 3.2 01:12:18 20° W 01:12:18 20° W 01:14:19 10° NW
Cosmos 1758 Rocket 4.3 01:10:25 10° N 01:14:47 47° ENE 01:16:23 32° SE
SL-8 R/B 4.3 01:11:27 10° W 01:15:00 37° SW 01:15:00 37° SW
Cosmos 1743 3.3 01:16:27 41° ESE 01:16:55 44° E 01:20:37 10° NNE
Cosmos 1459 Rocket 3.9 01:15:00 38° S 01:17:33 87° W 01:23:40 10° N
Cosmos 1602 Rocket 4.3 01:13:25 10° NNW 01:17:34 40° W 01:18:24 36° WSW
Cosmos 2016 Rocket 4.0 01:15:58 37° S 01:18:30 71° E 01:24:35 10° NNE
Cosmos 1340 3.9 01:17:59 10° N 01:21:33 36° ENE 01:22:42 29° ESE
Cosmos 1626 Rocket 4.5 01:18:37 10° NNW 01:22:42 36° W 01:23:33 33° WSW
UNK 4.0 01:11:20 10° WSW 01:23:38 57° SSE 01:27:15 10° E
Cosmos 1802 Rocket 3.9 01:21:21 37° S 01:24:01 89° E 01:30:22 10° N
Cosmos 2369 Rocket 2.8 01:21:04 23° WSW 01:24:28 51° NW 01:29:58 10° NNE
ALOS 2 4.4 01:25:07 18° WSW 01:25:50 19° W 01:29:00 10° NW
SeaSat 1 2.6 01:23:59 28° SE 01:26:36 72° NE 01:31:32 10° NNW
Cosmos 1842 4.1 01:24:33 10° N 01:28:24 44° ENE 01:29:36 33° ESE
CZ-2C R/B 3.0 01:27:02 44° SSW 01:28:31 67° WSW 01:33:22 10° NNW
Cosmos 2219 3.1 01:24:26 10° NNW 01:30:06 75° WSW 01:32:20 38° SSE
CZ-2C R/B 2.6 01:26:25 10° NNE 01:31:39 74° WNW 01:33:40 38° SSW
Lacrosse 5 2.1 01:28:05 19° WSW 01:31:42 71° NNW 01:36:49 10° ENE
Cosmos 1066 Rocket 4.2 01:26:52 10° NNW 01:32:09 61° W 01:33:53 40° SSW
Gblst 52 Del rocket 4.4 01:26:37 15° WSW 01:32:31 75° SSE 01:38:38 10° ENE
Cosmos 2227 Rocket 3.3 01:28:40 10° NNW 01:34:05 43° NE 01:39:29 10° ESE
Cosmos 2173 Rocket 4.2 01:34:33 34° SSW 01:37:26 67° WNW 01:43:48 10° N
Uosat 12 SS-18 rocket 4.4 01:35:10 10° NW 01:39:39 76° NE 01:43:18 19° SE
Cosmos 968 Rocket 4.0 01:36:55 10° NW 01:41:53 44° WSW 01:43:07 38° SW
Cosmos 44 Rocket 3.7 01:41:27 10° NW 01:46:19 43° WSW 01:47:04 40° SW
Cosmos 1666 3.4 01:45:35 37° SE 01:46:20 42° E 01:49:55 10° NNE
BREEZE-M R/B 4.3 01:37:17 10° WNW 01:46:33 73° SSW 01:52:17 10° ESE
Cosmos 1816 Rocket 4.5 01:47:08 10° N 01:53:25 88° E 01:56:47 30° S
Cosmos 1500 3.9 01:53:17 37° WSW 01:53:59 41° WNW 01:57:38 10° N
Cosmos 2228 3.8 01:52:39 32° SE 01:54:04 43° E 01:58:08 10° NNE
Cosmos 1725 Rocket 3.9 01:51:17 34° S 01:54:10 87° E 02:00:23 10° N
Cosmos 2297 Rocket 3.2 01:50:11 10° NNW 01:55:37 45° NE 02:01:01 10° SE
Cosmos 1656 Rocket 3.7 01:53:58 37° S 01:56:15 74° ESE 02:01:53 10° NNE
NOSS 3-3 (A) 4.3 01:55:44 33° S 01:58:27 56° ESE 02:05:06 10° NE
NOSS 3-3 (C) 4.3 01:55:50 33° S 01:58:33 55° ESE 02:05:11 10° NE
Tsikada Rocket 4.1 01:53:57 10° NNW 02:00:12 69° W 02:03:14 32° SSW
PSLV R/B 4.5 02:01:48 39° WSW 02:02:22 41° W 02:06:20 10° NNW
Cosmos 1818 3.9 01:59:23 26° WSW 02:02:30 64° NW 02:07:58 10° NE
Lacrosse 5 rocket 2.4 02:00:07 12° W 02:03:16 38° NNW 02:06:43 10° NE
Cosmos 1943 Rocket 2.6 02:00:34 27° WSW 02:03:32 56° NW 02:09:05 10° NNE
Cosmos 1606 Rocket 3.6 02:04:27 45° SW 02:05:39 69° WNW 02:09:59 10° N
Cosmos 2098 Rocket 4.3 02:03:35 31° SSW 02:07:19 82° W 02:15:01 10° N
Landsat 4 4.2 02:07:17 31° SE 02:08:55 58° ENE 02:12:43 10° N
PSLV R/B 3.7 02:09:35 10° NNE 02:14:02 73° ESE 02:15:44 38° S
ATLAS 2AS CENTAUR R/B 3.8 02:07:54 10° NW 02:14:53 33° WSW 02:17:35 27° SSW
Aureole 2 4.2 02:18:48 62° SW 02:19:18 83° WNW 02:22:59 10° NNE
SL-16 R/B 4.0 02:14:04 10° ESE 02:19:33 35° ENE 02:25:03 10° N
USA 234 4.1 02:14:15 10° ENE 02:20:33 52° N 02:26:50 10° W
ERS-2 4.2 02:21:13 10° NE 02:24:06 21° E 02:26:03 14° SE
Cosmos 2058 Rocket 3.1 02:23:00 39° SSW 02:24:33 68° WNW 02:29:00 10° N
Cosmos 1812 Rocket 4.5 02:22:42 23° SSE 02:25:01 42° E 02:29:15 10° NNE
Cosmos 2208 Rocket 4.0 02:23:23 34° SSW 02:25:44 81° ESE 02:31:03 10° NNE
Cosmos 44 3.8 02:20:50 10° NW 02:25:47 43° WSW 02:27:13 34° SSW
ISS -3.5 02:26:29 10° WNW 02:29:46 79° SSW 02:33:01 10° ESE
SL-08 R/B 3.3 02:27:23 24° SSE 02:30:13 81° ENE 02:34:53 10° NNW
Cosmos 2298 Rocket 4.0 02:26:28 10° NNW 02:31:49 84° ENE 02:36:12 15° SSE
Cosmos 1707 3.4 02:35:55 10° N 02:39:47 52° ENE 02:42:31 18° SSE
Cosmos 972 Rocket 4.0 02:36:17 10° NNW 02:41:07 61° WSW 02:43:53 26° S
Cosmos 1726 Rocket 4.5 02:40:39 26° WSW 02:42:16 35° WNW 02:46:16 10° N
Okean 3 Rocket 3.8 02:50:02 10° N 02:54:26 69° ENE 02:57:57 16° SSE
Cosmos 858 Rocket 4.4 02:50:31 10° NNW 02:55:46 79° WSW 03:00:31 13° SSE
CZ-2D R/B 3.8 02:51:39 10° NNE 02:56:23 29° E 03:01:02 10° SSE
Cosmos 1340 4.2 02:54:12 10° NW 02:57:04 21° W 02:57:34 20° W
Cosmos 990 Rocket 4.3 02:51:49 10° NNW 02:57:05 68° ENE 03:02:19 10° SSE
Cosmos 1464 Rocket 4.1 02:53:03 20° S 02:57:35 79° E 03:03:58 10° NNE
IRS-1C 4.4 02:52:22 10° NNE 02:57:42 65° ESE 03:01:27 20° S
ATLAS CENTAUR R/B 3.0 02:55:47 18° SSE 02:58:41 32° ESE 03:03:06 10° NE
Cosmos 2233 Rocket 4.3 02:57:01 23° SW 03:00:40 51° WNW 03:06:40 10° N
Cosmos 468 Rocket 4.4 02:59:23 20° S 03:02:47 55° ESE 03:07:50 10° NNE
SeaSat 1 3.8 03:03:46 20° WSW 03:04:34 21° WSW 03:08:17 10° WNW
Cosmos 2082 3.9 03:01:47 10° NW 03:07:14 50° WSW 03:11:29 16° S
Cosmos 2150 Rocket 4.1 03:04:55 10° NNW 03:10:04 57° WSW 03:14:08 16° S
Cosmos 1697 Rocket 3.9 03:05:53 12° SSE 03:10:29 34° ESE 03:15:34 10° NE
OPS 8737 4.2 03:10:44 32° SW 03:12:04 81° NW 03:15:25 10° NE
NOSS 2-1 (D) 4.1 03:11:24 23° S 03:13:36 46° ESE 03:18:04 10° NE
IRS-P3 4.3 03:08:33 10° N 03:13:51 62° WNW 03:17:23 21° SW
NOSS 2-1 (C) 4.1 03:12:45 23° S 03:14:59 46° ESE 03:19:27 10° NE
Lacrosse 5 3.2 03:10:29 10° WNW 03:15:17 39° N 03:20:05 10° ENE
Abrixas 2.7 03:15:55 27° WSW 03:17:14 47° SSW 03:20:12 10° ESE
Cosmos 2227 Rocket 2.7 03:12:52 10° NW 03:18:09 40° WSW 03:22:04 17° S
Cosmos 1980 Rocket 3.9 03:14:09 10° SSE 03:18:41 25° ESE 03:23:15 10° NE
Meteor 2-5 Rocket 4.0 03:13:09 10° NNW 03:18:53 58° W 03:23:37 16° S
Cosmos 1898 Rocket 3.9 03:15:32 10° NNW 03:20:38 47° WSW 03:24:45 15° S
USA 161 1.4 03:23:54 25° S 03:25:25 66° WSW 03:28:13 10° NNW
Cosmos 1125 Rocket 4.3 03:21:41 10° NNW 03:26:50 54° ENE 03:31:55 10° SE
GEOS 3 Rocket 3.5 03:21:47 10° SSE 03:26:59 70° SW 03:32:09 10° NW
Cosmos 1513 Rocket 4.4 03:22:38 17° SSW 03:27:29 79° W 03:33:35 10° N
Cosmos 1076 Rocket 3.7 03:23:13 10° N 03:27:35 73° ENE 03:31:53 10° SSE
CBERS 1 LM4 rocket 4.3 03:23:33 10° NNE 03:28:19 79° WNW 03:31:58 18° SSW
NOSS 2-1 (E) 3.8 03:27:23 20° SSW 03:30:01 59° SE 03:34:47 10° NE
Geosat 4.0 03:27:22 10° NNE 03:32:26 86° WNW 03:36:19 17° SW
Cosmos 1937 Rocket 3.7 03:28:29 10° NNW 03:33:27 49° WSW 03:38:26 10° S
BREEZE-M DEB (TANK) 2.9 03:31:18 16° WSW 03:34:08 65° SSE 03:38:03 10° E
Cosmos 405 Rocket 3.7 03:31:12 10° NNW 03:34:52 33° W 03:37:04 19° SW
Cosmos 841 Rocket 4.3 03:30:03 10° S 03:34:58 46° ESE 03:40:01 10° NE
AQUA 4.2 03:31:05 10° N 03:35:43 51° WNW 03:39:08 17° SW
Okean O Rocket 3.7 03:33:59 10° NE 03:37:30 23° E 03:41:00 10° SE
NOSS 3-4 (A) 3.9 03:31:42 10° NW 03:38:22 52° WSW 03:45:25 10° SSE
NOSS 3-4 (C) 3.9 03:31:47 10° NW 03:38:30 53° WSW 03:45:36 10° SSE
Resurs 1-4 Rocket 2.5 03:33:54 10° NNE 03:39:09 61° ESE 03:44:21 10° S
Cosmos 2297 Rocket 2.7 03:34:26 10° NW 03:39:37 38° WSW 03:44:46 10° S
Cosmos 2278 3.9 03:35:52 17° SW 03:40:16 65° WNW 03:45:56 10° NNE
Cosmos 2369 3.8 03:37:06 17° SW 03:41:32 70° WNW 03:47:14 10° NNE
Cosmos 1763 Rocket 3.9 03:36:56 12° S 03:41:44 58° ESE 03:46:49 10° NNE
ADEOS 3.7 03:37:55 10° N 03:43:08 68° WNW 03:47:32 14° SSW
Lacrosse 5 rocket 3.1 03:39:56 10° WNW 03:43:09 28° N 03:46:23 10° ENE
NPP 4.3 03:38:11 10° N 03:43:16 43° WNW 03:47:26 15° SW
Cosmos 1766 3.3 03:41:13 13° S 03:44:45 80° E 03:48:43 10° NNE
ARIANE 5 R/B 2.6 03:40:25 10° NNE 03:45:34 86° E 03:50:33 11° SSW
Cosmos 1378 3.1 03:42:52 10° NNW 03:46:40 68° W 03:50:25 10° S
Cosmos 1943 Rocket 4.4 03:45:05 10° WNW 03:48:35 17° NNW 03:52:07 10° N
BREEZE-M DEB (TANK) 2.4 03:51:31 15° WSW 03:53:27 41° S 03:57:08 10° ESE
UNKNOWN OBJECT B 3.4 03:49:56 10° NNE 03:53:50 55° E 03:57:36 10° S
Cosmos 1408 Rocket 3.6 03:51:15 10° NNW 03:55:35 63° W 03:59:57 10° S
ERS-2 3.0 03:54:32 10° N 03:58:02 37° WNW 04:00:53 14° SW
Cosmos 1766 Rocket 3.6 03:53:55 10° NNW 03:58:17 65° W 04:02:40 10° S
Cosmos 2034 Rocket 4.3 03:52:54 13° SSW 03:58:23 53° WNW 04:04:27 10° N
Cosmos-2242 3.5 03:54:15 10° S 03:58:29 60° E 04:02:44 10° NNE
Spot 4 Rocket 4.4 03:56:27 10° N 04:01:30 54° WNW 04:06:15 11° SW
SL-16 R/B 4.3 03:58:27 10° SSE 04:02:41 22° E 04:06:56 10° NE
SL-16 R/B 2.7 03:57:01 10° S 04:03:01 52° W 04:09:02 10° NNW
USA 234 4.1 03:56:40 10° E 04:03:03 55° NNE 04:09:24 10° WNW
Nadezhda 4 Rocket 4.3 03:58:14 10° NNW 04:04:09 50° W 04:10:07 10° SSW
Meteor 1-24 Rocket 4.2 03:59:15 10° NNW 04:04:35 43° W 04:10:02 10° SSW
Cosmos 1758 3.7 04:01:40 10° S 04:05:39 66° E 04:09:38 10° NNE
ISS -2.0 04:03:18 10° W 04:05:51 21° SW 04:08:22 10° SSE
Cosmos 1655 Rocket 4.3 04:01:13 10° N 04:07:39 77° ENE 04:14:03 10° SSE
EO 1 Del DPAF 3.7 04:06:29 10° S 04:10:12 43° W 04:13:56 10° NNW
Cosmos 1953 2.5 04:06:51 10° S 04:10:53 77° E 04:14:58 10° NNE
Cosmos 1441 Rocket 3.8 04:07:14 10° NNW 04:11:00 42° W 04:14:47 10° SSW
Thor Agena Rocket 4.2 04:06:18 10° SSE 04:11:14 60° ENE 04:16:14 10° N
IRS-1D 3.6 04:06:59 10° N 04:11:54 63° WNW 04:16:49 10° SSW
Cosmos 2263 Rocket 3.6 04:08:48 10° NNW 04:14:09 43° NE 04:19:26 10° ESE
Cosmos 1805 3.4 04:12:58 10° S 04:16:53 80° E 04:20:49 10° NNE
CZ-4B R/B 4.2 04:12:57 10° NNE 04:18:22 47° E 04:23:36 10° S
MOS 1-B 4.4 04:17:24 10° NNE 04:23:14 81° WNW 04:29:03 10° SSW
Cosmos 1842 Rocket 4.3 04:20:09 10° S 04:24:32 58° E 04:28:58 10° NNE
Cosmos 2227 4.4 04:21:38 10° NW 04:27:18 57° WSW 04:32:54 10° S
Cosmos 1656 4.1 04:26:32 10° SW 04:32:06 53° NW 04:37:39 10° NNE
CZ-2D R/B 3.6 04:29:26 10° N 04:33:45 77° WNW 04:38:09 10° SSW
Cosmos 2026 Rocket 4.1 04:29:01 10° NNW 04:35:20 68° W 04:41:33 10° S
CZ-2D R/B 2.6 04:31:25 10° N 04:36:43 51° WNW 04:41:57 10° SW
